EW1296 Weather Reports


time (UTC)temp
C
wind
direction
speed
KPH
gust
KPH
rain 1hr
cm
rain 24hr
cm
rain mn
cm
humidity
%
barometer
mb
20260904160516 30 315 8.0 17.7 0.00 0.00 0.00 52 1011.4
20260904160016 30 338 8.0 19.3 0.00 0.00 0.00 52 1011.4
20260904155516 30 315 9.7 17.7 0.00 0.00 0.00 53 1011.5
20260904155016 30 338 8.0 14.5 0.00 0.00 0.00 53 1011.5
20260904154516 30 338 8.0 19.3 0.00 0.00 0.00 52 1011.6
20260904154016 30 315 8.0 17.7 0.00 0.00 0.00 53 1011.7
20260904153536 30 315 11.3 24.1 0.00 0.00 0.00 53 1011.8
20260904153058 30 315 9.7 24.1 0.00 0.00 0.00 53 1011.7
20260904152538 30 315 9.7 20.9 0.00 0.00 0.00 54 1011.8
20260904152016 30 315 6.4 17.7 0.00 0.00 0.00 55 1011.8
20260904151516 30 315 8.0 19.3 0.00 0.00 0.00 55 1011.9
20260904151016 30 338 6.4 17.7 0.00 0.00 0.00 55 1011.9
20260904150517 30 315 4.8 11.3 0.00 0.00 0.00 58 1011.8
20260904150017 30 315 6.4 16.1 0.00 0.00 0.00 58 1011.9
20260904145516 30 270 3.2 9.7 0.00 0.00 0.00 59 1011.8
20260904145017 29 315 8.0 16.1 0.00 0.00 0.00 59 1011.8
20260904144517 29 315 6.4 17.7 0.00 0.00 0.00 60 1011.9
20260904144017 29 0 6.4 12.9 0.00 0.00 0.00 61 1011.8
20260904143517 29 23 3.2 11.3 0.00 0.00 0.00 62 1011.9
20260904143016 29 338 3.2 11.3 0.00 0.00 0.00 62 1011.8
20260904142516 28 338 4.8 14.5 0.00 0.00 0.00 62 1011.8
20260904142016 28 0 6.4 17.7 0.00 0.00 0.00 63 1011.8
20260904141517 28 0 6.4 16.1 0.00 0.00 0.00 64 1011.6
20260904141016 28 0 4.8 12.9 0.00 0.00 0.00 65 1011.6
20260904140516 28 338 6.4 14.5 0.00 0.00 0.00 66 1011.7
20260904140016 28 293 8.0 16.1 0.00 0.00 0.00 66 1011.8
20260904135637 28 315 4.8 16.1 0.00 0.00 0.00 66 1011.7
20260904135056 27 338 4.8 12.9 0.00 0.00 0.00 67 1011.6
20260904134516 27 338 6.4 14.5 0.00 0.00 0.00 68 1011.5
20260904134016 27 0 8.0 19.3 0.00 0.00 0.00 69 1011.4
20260904133516 27 315 8.0 17.7 0.00 0.00 0.00 69 1011.5
20260904133016 27 315 9.7 17.7 0.00 0.00 0.00 70 1011.5
20260904132516 27 315 6.4 14.5 0.00 0.00 0.00 71 1011.4
20260904132017 27 315 6.4 17.7 0.00 0.00 0.00 73 1011.5
20260904131516 27 338 6.4 12.9 0.00 0.00 0.00 74 1011.5
20260904131037 26 293 6.4 14.5 0.00 0.00 0.00 75 1011.5
20260904130516 26 293 9.7 19.3 0.00 0.00 0.00 76 1011.5
20260904130016 26 293 6.4 16.1 0.00 0.00 0.00 76 1011.6
20260904125557 26 315 8.0 17.7 0.00 0.00 0.00 77 1011.5
20260904125016 26 315 9.7 16.1 0.00 0.00 0.00 78 1011.5
20260904124557 26 338 3.2 12.9 0.00 0.00 0.00 80 1011.4
20260904124017 26 315 8.0 20.9 0.00 0.00 0.00 81 1011.4
20260904123516 25 315 8.0 16.1 0.00 0.00 0.00 81 1011.4
20260904123016 25 338 6.4 17.7 0.00 0.00 0.00 82 1011.4
20260904122517 25 315 8.0 17.7 0.00 0.00 0.00 83 1011.4
20260904122017 25 293 8.0 19.3 0.00 0.00 0.00 83 1011.3
20260904121516 25 315 8.0 16.1 0.00 0.00 0.00 84 1011.2
20260904121037 25 315 8.0 17.7 0.00 0.00 0.00 84 1011.3
20260904120536 25 315 6.4 19.3 0.00 0.00 0.00 85 1011.1
20260904120016 25 315 8.0 19.3 0.00 0.00 0.00 85 1011.2
20260904115516 25 315 8.0 19.3 0.00 0.00 0.00 86 1011.3
20260904115036 25 315 9.7 16.1 0.00 0.00 0.00 86 1011.3
20260904114517 25 315 8.0 19.3 0.00 0.00 0.00 86 1011.4
20260904114036 25 315 6.4 16.1 0.00 0.00 0.00 87 1011.3
20260904113516 25 0 4.8 12.9 0.00 0.00 0.00 87 1011.3
20260904113016 24 315 6.4 16.1 0.00 0.00 0.00 87 1011.2
20260904112517 24 315 6.4 16.1 0.00 0.00 0.00 87 1011.1
20260904112016 24 315 6.4 17.7 0.00 0.00 0.00 88 1011.1
20260904111517 24 315 4.8 12.9 0.00 0.00 0.00 88 1011.0
20260904111036 24 315 4.8 12.9 0.00 0.00 0.00 88 1011.0
20260904110516 24 315 4.8 9.7 0.00 0.00 0.00 88 1011.1
20260904110017 24 315 4.8 12.9 0.00 0.00 0.00 88 1011.1
20260904105516 24 315 3.2 9.7 0.00 0.00 0.00 88 1010.9
20260904105016 24 315 4.8 14.5 0.00 0.00 0.00 88 1010.9
20260904104516 24 338 4.8 11.3 0.00 0.00 0.00 88 1010.9
20260904104016 24 315 3.2 8.0 0.00 0.00 0.00 88 1010.8
20260904103516 24 315 4.8 12.9 0.00 0.00 0.00 88 1010.8
20260904103016 24 315 4.8 8.0 0.00 0.00 0.00 88 1010.7
20260904102516 24 270 3.2 9.7 0.00 0.00 0.00 88 1010.7
20260904102016 24 270 3.2 6.4 0.00 0.00 0.00 87 1010.7
20260904101516 24 293 3.2 6.4 0.00 0.00 0.00 87 1010.7
20260904101017 24 270 1.6 4.8 0.00 0.00 0.00 87 1010.7
20260904100516 24 0.0 3.2 0.00 0.00 0.00 87 1010.7
20260904100016 24 270 1.6 6.4 0.00 0.00 0.00 87 1010.7
20260904095516 24 270 3.2 9.7 0.00 0.00 0.00 87 1010.7
20260904095016 24 248 4.8 14.5 0.00 0.00 0.00 86 1010.7
20260904094516 24 270 6.4 11.3 0.00 0.00 0.00 86 1010.6
20260904094016 24 293 4.8 12.9 0.00 0.00 0.00 86 1010.6
20260904093537 24 270 6.4 12.9 0.00 0.00 0.00 86 1010.6
20260904093017 24 270 6.4 14.5 0.00 0.00 0.00 85 1010.5
20260904092516 24 270 4.8 12.9 0.00 0.00 0.00 85 1010.5
20260904092016 24 270 4.8 11.3 0.00 0.00 0.00 85 1010.5
20260904091517 24 270 4.8 9.7 0.00 0.00 0.00 85 1010.6
20260904091035 24 248 4.8 11.3 0.00 0.00 0.00 84 1010.5
20260904090516 24 248 3.2 8.0 0.00 0.00 0.00 84 1010.5
20260904090017 25 270 3.2 6.4 0.00 0.00 0.00 84 1010.6
20260904085557 25 315 4.8 11.3 0.00 0.00 0.00 84 1010.5
20260904085018 25 270 4.8 9.7 0.00 0.00 0.00 84 1010.5
20260904084517 25 270 1.6 9.7 0.00 0.00 0.00 84 1010.6
20260904084017 25 315 4.8 12.9 0.00 0.00 0.00 83 1010.5
20260904083516 25 270 6.4 12.9 0.00 0.03 0.00 83 1010.4
20260904083016 25 270 4.8 11.3 0.00 0.03 0.00 83 1010.6
20260904082516 25 338 3.2 9.7 0.00 0.03 0.00 83 1010.7
20260904082016 25 270 1.6 4.8 0.00 0.03 0.00 83 1010.6
20260904081556 25 293 1.6 6.4 0.00 0.03 0.00 82 1010.6
20260904081016 25 293 4.8 9.7 0.00 0.03 0.00 82 1010.5
20260904080515 25 293 4.8 12.9 0.00 0.03 0.00 82 1010.5
20260904080016 25 293 3.2 6.4 0.00 0.03 0.00 82 1010.6
20260904075537 25 293 1.6 8.0 0.00 0.03 0.00 82 1010.6
20260904075037 25 315 1.6 4.8 0.00 0.03 0.00 82 1010.6
20260904074517 25 270 3.2 6.4 0.00 0.03 0.00 82 1010.5
20260904074016 25 315 4.8 11.3 0.00 0.03 0.00 81 1010.4
20260904073516 25 248 4.8 8.0 0.00 0.03 0.00 81 1010.2
20260904073017 25 248 4.8 8.0 0.00 0.05 0.00 81 1010.2
20260904072536 25 203 4.8 8.0 0.00 0.05 0.00 80 1010.0
20260904072016 25 203 1.6 4.8 0.00 0.08 0.00 80 1009.9
20260904071517 25 203 1.6 3.2 0.00 0.08 0.00 80 1010.0
20260904071016 25 203 4.8 11.3 0.00 0.10 0.00 79 1010.1
20260904070517 26 248 4.8 11.3 0.00 0.10 0.00 79 1010.4
20260904070016 26 270 4.8 12.9 0.00 0.13 0.00 79 1010.4
20260904065517 26 315 4.8 12.9 0.00 0.13 0.00 79 1010.2
20260904065016 26 338 4.8 11.3 0.00 0.13 0.00 79 1010.2
20260904064515 26 270 8.0 16.1 0.00 0.15 0.00 79 1010.4
20260904064017 26 248 9.7 20.9 0.00 0.15 0.00 78 1010.5
20260904063537 26 248 9.7 17.7 0.00 0.15 0.00 78 1010.6
20260904063036 27 270 11.3 25.7 0.00 0.15 0.00 78 1010.7
20260904062516 27 270 11.3 25.7 0.00 0.15 0.00 78 1010.8
20260904062015 27 270 9.7 22.5 0.00 0.18 0.00 79 1010.8
20260904061515 27 270 9.7 22.5 0.00 0.18 0.00 79 1010.7
20260904061017 27 293 9.7 19.3 0.00 0.18 0.00 80 1010.8
20260904060538 27 248 4.8 11.3 0.00 0.18 0.00 80 1010.7
20260904060015 27 248 6.4 14.5 0.00 0.18 0.00 81 1010.6
20260904055516 27 248 3.2 8.0 0.00 0.18 0.00 81 1010.6
20260904055017 27 293 1.6 6.4 0.00 0.18 0.00 82 1010.7
20260904054515 27 248 4.8 8.0 0.00 0.20 0.00 82 1011.0
20260904054015 27 248 4.8 11.3 0.00 0.20 0.00 82 1011.1
20260904053516 27 248 3.2 6.4 0.00 0.23 0.00 82 1011.2
20260904053016 27 248 6.4 11.3 0.00 0.25 0.00 83 1011.4
20260904052515 27 225 1.6 6.4 0.00 0.25 0.00 83 1011.5
20260904052036 27 248 3.2 9.7 0.00 0.25 0.00 83 1011.3
20260904051515 27 225 4.8 9.7 0.00 0.25 0.00 83 1011.3
20260904051015 27 248 4.8 11.3 0.00 0.25 0.00 83 1011.2
20260904050535 27 248 4.8 11.3 0.00 0.28 0.00 83 1011.3
20260904050015 27 248 4.8 11.3 0.00 0.33 0.00 83 1011.4
20260904045515 27 225 6.4 14.5 0.00 0.36 0.00 83 1011.4
20260904045015 27 270 6.4 16.1 0.00 0.36 0.00 82 1011.5
20260904044516 27 225 6.4 14.5 0.00 0.36 0.00 82 1011.6
20260904044017 27 225 6.4 14.5 0.00 0.36 0.00 82 1011.6
20260904043516 27 248 8.0 14.5 0.00 0.36 0.00 82 1011.7
20260904043016 27 225 4.8 11.3 0.00 0.36 0.00 82 1011.7
20260904042515 27 270 3.2 9.7 0.00 0.36 0.00 83 1011.9
20260904042015 27 248 4.8 14.5 0.00 0.36 0.00 83 1011.9
20260904041516 26 248 6.4 14.5 0.00 0.36 0.00 83 1011.9
20260904041015 26 248 8.0 16.1 0.00 0.36 0.00 83 1012.0
20260904040515 26 248 8.0 17.7 0.00 0.36 0.00 84 1012.0
20260904040015 26 248 4.8 9.7 0.00 0.36 0.36 84 1012.0
20260904035516 26 225 3.2 6.4 0.00 0.36 0.36 83 1012.0
20260904035016 27 225 3.2 8.0 0.00 0.36 0.36 83 1012.0
20260904034536 27 248 8.0 16.1 0.00 0.36 0.36 83 1012.0
20260904034016 27 225 6.4 12.9 0.00 0.36 0.36 82 1011.9
20260904033536 27 225 4.8 12.9 0.00 0.36 0.36 82 1011.8
20260904033016 27 225 4.8 11.3 0.00 0.36 0.36 81 1011.8
20260904032516 27 225 4.8 11.3 0.00 0.36 0.36 81 1011.7
20260904032056 27 225 4.8 11.3 0.00 0.36 0.36 81 1011.9
20260904031516 27 248 3.2 6.4 0.00 0.36 0.36 81 1011.8
20260904031016 27 270 3.2 8.0 0.00 0.36 0.36 81 1011.9
20260904030517 27 203 1.6 4.8 0.00 0.36 0.36 81 1012.0
20260904030016 27 270 3.2 8.0 0.00 0.36 0.36 81 1012.2
20260904025517 27 270 3.2 6.4 0.00 0.36 0.36 81 1012.3
20260904025016 27 248 3.2 8.0 0.00 0.36 0.36 80 1012.3
20260904024516 27 248 1.6 6.4 0.00 0.36 0.36 80 1012.3
20260904024017 27 0.0 3.2 0.00 0.36 0.36 80 1012.2
20260904023516 27 248 1.6 4.8 0.00 0.36 0.36 80 1012.2
20260904023016 27 248 1.6 4.8 0.00 0.36 0.36 80 1012.3
20260904022537 27 0.0 1.6 0.00 0.36 0.36 80 1012.3
20260904022016 27 0.0 4.8 0.00 0.36 0.36 80 1012.4
20260904021516 27 248 1.6 4.8 0.00 0.36 0.36 80 1012.6
20260904021016 27 248 3.2 6.4 0.00 0.36 0.36 80 1012.7
20260904020516 27 248 1.6 6.4 0.00 0.36 0.36 80 1012.7
20260904020017 27 248 3.2 8.0 0.00 0.36 0.36 79 1012.8
20260904015516 27 248 3.2 6.4 0.00 0.36 0.36 79 1012.9
20260904015036 27 248 3.2 6.4 0.00 0.36 0.36 78 1012.9
20260904014515 27 248 3.2 6.4 0.00 0.36 0.36 78 1013.0
20260904014017 27 248 4.8 8.0 0.00 0.36 0.36 78 1012.9
20260904013516 27 225 3.2 6.4 0.00 0.36 0.36 78 1012.8
20260904013036 27 203 3.2 6.4 0.00 0.36 0.36 78 1012.8
20260904012516 27 225 3.2 8.0 0.00 0.36 0.36 77 1012.7
20260904012016 27 225 3.2 8.0 0.00 0.36 0.36 77 1012.7
20260904011516 27 225 1.6 6.4 0.00 0.36 0.36 77 1012.8
20260904011016 27 0.0 3.2 0.00 0.36 0.36 77 1012.7
20260904010516 27 0.0 3.2 0.00 0.36 0.36 76 1012.7
20260904010016 27 225 1.6 6.4 0.00 0.36 0.36 75 1012.7
20260904005515 27 0.0 3.2 0.00 0.36 0.36 75 1012.6
20260904005015 27 0.0 0.0 0.00 0.36 0.36 74 1012.5
20260904004515 27 0.0 0.0 0.00 0.36 0.36 74 1012.3
20260904004015 28 0.0 0.0 0.00 0.36 0.36 73 1012.3
20260904003515 28 0.0 0.0 0.00 0.36 0.36 73 1012.4
20260904003015 28 0.0 3.2 0.00 0.36 0.36 72 1012.6
20260904002515 28 225 1.6 4.8 0.00 0.36 0.36 71 1012.7
20260904002016 28 0.0 3.2 0.00 0.36 0.36 71 1012.5
20260904001535 28 225 1.6 6.4 0.00 0.36 0.36 70 1012.4
20260904001015 28 225 1.6 6.4 0.00 0.36 0.36 69 1012.5
20260904000536 29 225 3.2 6.4 0.00 0.36 0.36 68 1012.4
20260904000016 29 225 1.6 8.0 0.00 0.36 0.36 67 1012.4
20260903235515 30 225 1.6 4.8 0.00 0.36 0.36 66 1012.2
20260903235015 30 225 3.2 6.4 0.00 0.36 0.36 64 1011.9
20260903234516 30 225 3.2 6.4 0.00 0.36 0.36 64 1011.9
20260903234016 30 270 3.2 8.0 0.00 0.36 0.36 63 1012.1
20260903233516 30 248 3.2 6.4 0.00 0.36 0.36 63 1012.0
20260903233015 30 248 1.6 6.4 0.00 0.36 0.36 63 1011.9
20260903232515 30 270 4.8 12.9 0.00 0.36 0.36 62 1011.8
20260903232015 30 270 3.2 9.7 0.00 0.36 0.36 62 1011.9
20260903231517 30 270 3.2 11.3 0.00 0.36 0.36 62 1011.9
20260903231015 30 270 4.8 11.3 0.00 0.36 0.36 62 1012.0
20260903230536 30 270 4.8 11.3 0.00 0.36 0.36 61 1012.0
20260903230015 30 248 3.2 8.0 0.00 0.36 0.36 61 1011.9
20260903225516 30 270 3.2 9.7 0.00 0.36 0.36 61 1012.0
20260903225017 30 248 4.8 9.7 0.00 0.36 0.36 61 1012.0
20260903224515 31 225 4.8 11.3 0.00 0.36 0.36 60 1012.0
20260903224015 31 248 3.2 8.0 0.00 0.36 0.36 60 1012.0
20260903223517 31 293 4.8 11.3 0.00 0.36 0.36 59 1012.1
20260903223037 31 248 3.2 8.0 0.00 0.36 0.36 59 1012.1
20260903222516 31 293 3.2 9.7 0.00 0.36 0.36 59 1012.2
20260903222015 31 270 4.8 11.3 0.00 0.36 0.36 59 1012.1
20260903221536 31 315 3.2 6.4 0.00 0.36 0.36 59 1012.1
20260903221015 31 248 4.8 11.3 0.00 0.36 0.36 59 1012.0
20260903220515 31 270 6.4 12.9 0.00 0.36 0.36 58 1012.0
20260903220015 31 315 4.8 9.7 0.00 0.36 0.36 57 1011.9
20260903215515 31 270 4.8 11.3 0.00 0.36 0.36 57 1012.0
20260903215015 32 248 6.4 14.5 0.00 0.36 0.36 56 1011.9
20260903214517 32 270 4.8 12.9 0.00 0.36 0.36 56 1011.8
20260903214018 32 293 6.4 14.5 0.00 0.36 0.36 56 1011.8
20260903213518 32 270 4.8 9.7 0.00 0.36 0.36 56 1011.9
20260903213038 32 293 6.4 12.9 0.00 0.36 0.36 56 1011.8
20260903212517 31 270 4.8 14.5 0.00 0.36 0.36 57 1011.9
20260903212057 31 270 8.0 12.9 0.00 0.36 0.36 57 1012.0
20260903211537 31 270 6.4 12.9 0.00 0.36 0.36 57 1012.0
20260903211037 32 270 4.8 12.9 0.00 0.36 0.36 56 1012.0
20260903210539 32 270 6.4 16.1 0.00 0.36 0.36 55 1012.1
20260903210017 32 248 6.4 16.1 0.00 0.36 0.36 55 1012.0
20260903205517 32 293 6.4 14.5 0.00 0.36 0.36 54 1012.0
20260903205017 32 270 6.4 16.1 0.00 0.36 0.36 54 1012.0
20260903204517 32 225 6.4 14.5 0.00 0.36 0.36 55 1012.0
20260903204017 32 315 6.4 12.9 0.00 0.36 0.36 55 1012.0
20260903203517 32 270 8.0 17.7 0.00 0.36 0.36 55 1012.0
20260903203017 32 270 9.7 20.9 0.00 0.36 0.36 55 1011.9
20260903202517 32 270 8.0 16.1 0.00 0.36 0.36 55 1012.0
20260903202017 32 270 9.7 16.1 0.00 0.36 0.36 55 1011.9
20260903201517 32 270 9.7 17.7 0.00 0.36 0.36 55 1011.9
20260903201017 32 270 6.4 17.7 0.00 0.36 0.36 55 1011.9
20260903200538 32 270 9.7 17.7 0.00 0.36 0.36 55 1012.0
20260903200018 32 248 4.8 16.1 0.00 0.36 0.36 56 1012.1
20260903195517 32 225 4.8 9.7 0.00 0.36 0.36 57 1012.2
20260903195018 31 270 3.2 9.7 0.00 0.36 0.36 57 1012.2
20260903194537 31 0 4.8 16.1 0.00 0.36 0.36 58 1012.2
20260903194015 31 248 4.8 12.9 0.00 0.36 0.36 59 1012.2
20260903193540 31 270 8.0 19.3 0.00 0.36 0.36 58 1012.3
20260903193037 31 248 6.4 14.5 0.00 0.36 0.36 59 1012.4
20260903192517 31 293 3.2 11.3 0.00 0.36 0.36 59 1012.5
20260903192017 31 293 6.4 16.1 0.00 0.36 0.36 59 1012.5
20260903191517 31 248 6.4 17.7 0.00 0.36 0.36 59 1012.6
20260903191017 31 248 8.0 17.7 0.00 0.36 0.36 59 1012.6
20260903190517 31 270 8.0 19.3 0.00 0.36 0.36 60 1012.7
20260903190037 31 270 8.0 20.9 0.00 0.36 0.36 60 1012.7
20260903185517 31 270 9.7 17.7 0.00 0.38 0.36 61 1012.9
20260903185018 31 270 9.7 19.3 0.00 0.38 0.36 60 1012.9
20260903184518 31 248 11.3 24.1 0.00 0.38 0.36 60 1013.0
20260903184018 30 225 11.3 24.1 0.00 0.38 0.36 61 1013.1
20260903183517 30 270 9.7 20.9 0.00 0.38 0.36 61 1013.0
20260903183037 30 270 8.0 19.3 0.00 0.38 0.36 61 1013.1
20260903182517 30 270 12.9 22.5 0.00 0.38 0.36 61 1013.1
20260903182017 30 315 9.7 17.7 0.00 0.38 0.36 61 1013.1
20260903181517 30 225 8.0 16.1 0.00 0.38 0.36 62 1013.1
20260903181017 30 270 11.3 24.1 0.00 0.38 0.36 63 1013.2
20260903180517 30 270 9.7 17.7 0.00 0.38 0.36 63 1013.4
20260903180017 30 270 8.0 17.7 0.00 0.38 0.36 64 1013.4
20260903175517 30 248 8.0 16.1 0.00 0.38 0.36 65 1013.6
20260903175058 30 270 9.7 19.3 0.00 0.38 0.36 64 1013.6
20260903174537 29 270 11.3 19.3 0.00 0.38 0.36 65 1013.6
20260903174037 29 270 11.3 22.5 0.00 0.38 0.36 65 1013.7
20260903173517 30 270 11.3 19.3 0.00 0.38 0.36 64 1013.6
20260903173017 29 270 8.0 17.7 0.00 0.38 0.36 65 1013.6
20260903172517 29 270 6.4 14.5 0.00 0.38 0.36 66 1013.8
20260903172017 28 270 9.7 19.3 0.00 0.38 0.36 66 1014.0
20260903171517 28 270 11.3 20.9 0.00 0.38 0.36 67 1014.0
20260903171018 28 270 12.9 24.1 0.00 0.38 0.36 67 1014.1
20260903170538 28 248 8.0 14.5 0.00 0.38 0.36 68 1014.1
20260903170017 28 270 9.7 19.3 0.00 0.38 0.36 68 1014.2
20260903165518 28 270 12.9 20.9 0.00 0.38 0.36 67 1014.3
20260903165018 28 293 11.3 20.9 0.00 0.38 0.36 65 1014.3
20260903164517 28 270 9.7 22.5 0.00 0.38 0.36 67 1014.4
20260903164017 28 270 12.9 29.0 0.00 0.38 0.36 67 1014.5
20260903163517 28 225 11.3 32.2 0.00 0.38 0.36 67 1014.6
20260903163037 28 270 11.3 20.9 0.00 0.38 0.36 68 1014.5
20260903162517 28 270 11.3 24.1 0.00 0.38 0.36 69 1014.5
20260903162017 28 270 14.5 24.1 0.00 0.38 0.36 70 1014.6
20260903161537 28 225 11.3 22.5 0.00 0.38 0.36 71 1014.6
20260903161017 27 270 8.0 19.3 0.00 0.38 0.36 72 1014.6